• In Uzbekistan
  • List of Countries
  • For 7 days
  • Water Temperature
  • Satellite Maps
  • Weather Map
  • Weather Widgets
  • user-avatar
    Login

    Hourly Weather Akdepe

    Today, 23 October, Tuesday

    Time Temperature Precipitation Wind Pressure Humidity
    00:00 +14°C° 0 mm 4 mps 759 mmHg 36%
    01:00 +13°C° 0 mm 4 mps 759 mmHg 37%
    02:00 +13°C° 0 mm 4 mps 758 mmHg 38%
    03:00 +13°C° 0 mm 3 mps 758 mmHg 38%
    04:00 +13°C° 0 mm 3 mps 758 mmHg 39%
    05:00 +13°C° 0 mm 3 mps 758 mmHg 39%
    06:00 +13°C° 0 mm 3 mps 758 mmHg 38%
    07:00 +13°C° 0 mm 3 mps 758 mmHg 38%
    08:00 +14°C° 0 mm 3 mps 758 mmHg 35%
    09:00 +17°C° 0 mm 3 mps 758 mmHg 32%
    10:00 +18°C° 0 mm 3 mps 758 mmHg 29%
    11:00 +19°C° 0 mm 3 mps 758 mmHg 28%
    12:00 +20°C° 0 mm 3 mps 758 mmHg 26%
    13:00 +21°C° 0 mm 2 mps 757 mmHg 24%
    14:00 +21°C° 0 mm 2 mps 757 mmHg 24%
    15:00 +21°C° 0 mm 2 mps 757 mmHg 25%
    16:00 +21°C° 0 mm 2 mps 757 mmHg 25%
    17:00 +20°C° 0 mm 2 mps 757 mmHg 26%
    18:00 +19°C° 0 mm 2 mps 756 mmHg 26%
    19:00 +19°C° 0 mm 2 mps 756 mmHg 27%
    20:00 +18°C° 0 mm 2 mps 756 mmHg 28%
    21:00 +18°C° 0 mm 2 mps 756 mmHg 28%
    22:00 +17°C° 0 mm 2 mps 756 mmHg 29%
    23:00 +17°C° 0 mm 2 mps 756 mmHg 29%

    Tomorrow, 24 October, Wednesday

    Time Temperature Precipitation Wind Pressure Humidity
    00:00 +17°C° 0 mm 2 mps 755 mmHg 30%
    01:00 +16°C° 0 mm 2 mps 755 mmHg 30%
    02:00 +16°C° 0 mm 2 mps 755 mmHg 30%
    03:00 +16°C° 0 mm 2 mps 755 mmHg 31%
    04:00 +16°C° 0 mm 2 mps 754 mmHg 31%
    05:00 +16°C° 0 mm 2 mps 754 mmHg 31%
    06:00 +16°C° 0 mm 2 mps 754 mmHg 31%
    07:00 +16°C° 0 mm 2 mps 754 mmHg 31%
    08:00 +18°C° 0 mm 3 mps 754 mmHg 28%
    09:00 +20°C° 0 mm 3 mps 754 mmHg 24%
    10:00 +22°C° 0 mm 4 mps 754 mmHg 20%
    11:00 +23°C° 0 mm 4 mps 754 mmHg 18%
    12:00 +25°C° 0 mm 4 mps 753 mmHg 16%
    13:00 +27°C° 0 mm 4 mps 753 mmHg 14%
    14:00 +27°C° 0 mm 4 mps 753 mmHg 15%
    15:00 +27°C° 0 mm 3 mps 752 mmHg 15%
    16:00 +27°C° 0 mm 3 mps 752 mmHg 16%
    17:00 +25°C° 0 mm 3 mps 752 mmHg 18%
    18:00 +24°C° 0 mm 2 mps 752 mmHg 20%
    19:00 +23°C° 0 mm 2 mps 752 mmHg 22%
    20:00 +21°C° 0 mm 3 mps 752 mmHg 23%
    21:00 +21°C° 0 mm 3 mps 752 mmHg 24%
    22:00 +21°C° 0 mm 3 mps 752 mmHg 25%
    23:00 +20°C° 0 mm 3 mps 752 mmHg 26%

    Day after tomorrow, 25 October, Thursday

    Time Temperature Precipitation Wind Pressure Humidity
    00:00 +20°C° 0 mm 3 mps 752 mmHg 28%
    01:00 +19°C° 0 mm 3 mps 751 mmHg 29%
    02:00 +19°C° 0 mm 4 mps 751 mmHg 30%
    03:00 +19°C° 0 mm 4 mps 751 mmHg 30%
    04:00 +19°C° 0 mm 4 mps 751 mmHg 31%
    05:00 +19°C° 0 mm 4 mps 751 mmHg 29%
    06:00 +18°C° 0 mm 4 mps 751 mmHg 27%
    07:00 +18°C° 0 mm 4 mps 751 mmHg 25%
    08:00 +20°C° 0 mm 5 mps 751 mmHg 22%
    09:00 +23°C° 0 mm 6 mps 751 mmHg 18%
    10:00 +26°C° 0 mm 7 mps 751 mmHg 15%
    11:00 +27°C° 0 mm 8 mps 750 mmHg 14%
    12:00 +29°C° 0 mm 8 mps 750 mmHg 13%
    13:00 +31°C° 0 mm 8 mps 749 mmHg 13%
    14:00 +31°C° 0 mm 8 mps 749 mmHg 13%
    15:00 +30°C° 0 mm 7 mps 749 mmHg 14%
    16:00 +30°C° 0 mm 6 mps 748 mmHg 14%
    17:00 +29°C° 0 mm 6 mps 748 mmHg 15%
    18:00 +28°C° 0 mm 6 mps 748 mmHg 16%
    19:00 +27°C° 0 mm 6 mps 748 mmHg 16%
    20:00 +26°C° 0 mm 6 mps 748 mmHg 17%
    21:00 +26°C° 0 mm 6 mps 748 mmHg 17%
    22:00 +24°C° 0 mm 7 mps 748 mmHg 17%
    23:00 +24°C° 0 mm 6 mps 748 mmHg 17%

    26 October, Friday

    Time Temperature Precipitation Wind Pressure Humidity
    00:00 +23°C° 0 mm 6 mps 747 mmHg 18%
    01:00 +23°C° 0 mm 6 mps 747 mmHg 18%
    02:00 +22°C° 0 mm 6 mps 747 mmHg 19%
    03:00 +22°C° 0 mm 6 mps 747 mmHg 21%
    04:00 +22°C° 0 mm 5 mps 747 mmHg 22%
    05:00 +22°C° 0 mm 5 mps 747 mmHg 23%
    06:00 +22°C° 0 mm 5 mps 747 mmHg 23%
    07:00 +22°C° 0 mm 4 mps 747 mmHg 24%
    08:00 +23°C° 0 mm 4 mps 747 mmHg 24%
    09:00 +25°C° 0 mm 4 mps 748 mmHg 23%
    10:00 +26°C° 0 mm 3 mps 748 mmHg 22%
    11:00 +29°C° 0 mm 4 mps 747 mmHg 20%
    12:00 +32°C° 0 mm 4 mps 747 mmHg 18%
    13:00 +34°C° 0 mm 4 mps 747 mmHg 16%
    14:00 +34°C° 0 mm 3 mps 747 mmHg 16%
    15:00 +34°C° 0 mm 3 mps 746 mmHg 17%
    16:00 +34°C° 0 mm 3 mps 746 mmHg 17%
    17:00 +31°C° 0 mm 3 mps 746 mmHg 20%
    18:00 +30°C° 0 mm 3 mps 747 mmHg 23%
    19:00 +29°C° 0 mm 4 mps 747 mmHg 25%
    20:00 +28°C° 0 mm 3 mps 747 mmHg 30%
    21:00 +27°C° 0 mm 3 mps 747 mmHg 35%
    22:00 +26°C° 0 mm 3 mps 747 mmHg 40%
    23:00 +26°C° 0 mm 3 mps 747 mmHg 42%

    27 October, Saturday

    Time Temperature Precipitation Wind Pressure Humidity
    00:00 +25°C° 0 mm 2 mps 747 mmHg 44%
    01:00 +25°C° 0 mm 2 mps 747 mmHg 46%
    02:00 +24°C° 0 mm 3 mps 747 mmHg 50%
    03:00 +22°C° 0 mm 3 mps 748 mmHg 55%
    04:00 +21°C° 0 mm 4 mps 748 mmHg 60%
    05:00 +21°C° 0 mm 4 mps 749 mmHg 62%
    06:00 +20°C° 0 mm 5 mps 750 mmHg 64%
    07:00 +19°C° 0 mm 5 mps 750 mmHg 66%
    08:00 +19°C° 0 mm 6 mps 751 mmHg 60%
    09:00 +18°C° 0 mm 7 mps 752 mmHg 55%
    10:00 +18°C° 0 mm 8 mps 753 mmHg 49%
    11:00 +18°C° 0 mm 8 mps 754 mmHg 46%
    12:00 +18°C° 0 mm 8 mps 755 mmHg 43%
    13:00 +18°C° 0 mm 8 mps 756 mmHg 40%
    14:00 +18°C° 0 mm 8 mps 756 mmHg 39%
    15:00 +18°C° 0 mm 8 mps 757 mmHg 37%
    16:00 +17°C° 0 mm 8 mps 758 mmHg 36%
    17:00 +17°C° 0 mm 7 mps 759 mmHg 37%
    18:00 +16°C° 0 mm 5 mps 760 mmHg 37%
    19:00 +15°C° 0 mm 4 mps 761 mmHg 38%
    20:00 +15°C° 0 mm 4 mps 762 mmHg 38%
    21:00 +14°C° 0 mm 3 mps 762 mmHg 38%
    22:00 +14°C° 0 mm 3 mps 763 mmHg 38%
    23:00 +14°C° 0 mm 3 mps 763 mmHg 40%

    28 October, Sunday

    Time Temperature Precipitation Wind Pressure Humidity
    00:00 +13°C° 0 mm 3 mps 764 mmHg 42%
    01:00 +13°C° 0 mm 3 mps 764 mmHg 44%
    02:00 +13°C° 0 mm 3 mps 765 mmHg 44%
    03:00 +13°C° 0 mm 3 mps 765 mmHg 45%
    04:00 +12°C° 0 mm 3 mps 766 mmHg 46%
    05:00 +12°C° 0 mm 3 mps 766 mmHg 49%
    06:00 +12°C° 0 mm 3 mps 767 mmHg 52%
    07:00 +11°C° 0 mm 3 mps 767 mmHg 55%
    08:00 +12°C° 0 mm 3 mps 768 mmHg 53%
    09:00 +13°C° 0 mm 3 mps 768 mmHg 50%
    10:00 +16°C° 0 mm 3 mps 769 mmHg 48%
    11:00 +16°C° 0 mm 2 mps 769 mmHg 45%
    12:00 +18°C° 0 mm 1 mps 769 mmHg 42%
    13:00 +18°C° 0 mm 1 mps 769 mmHg 38%
    14:00 +18°C° 0 mm 1 mps 769 mmHg 37%
    15:00 +19°C° 0 mm 1 mps 769 mmHg 35%
    16:00 +19°C° 0 mm 1 mps 769 mmHg 34%
    17:00 +17°C° 0 mm 2 mps 770 mmHg 36%
    18:00 +16°C° 0 mm 2 mps 770 mmHg 38%
    19:00 +16°C° 0 mm 2 mps 770 mmHg 40%
    20:00 +14°C° 0 mm 3 mps 771 mmHg 41%
    21:00 +14°C° 0 mm 3 mps 771 mmHg 43%
    22:00 +13°C° 0 mm 4 mps 771 mmHg 44%
    23:00 +13°C° 0 mm 4 mps 771 mmHg 45%

    29 October, Monday

    Time Temperature Precipitation Wind Pressure Humidity
    00:00 +12°C° 0 mm 4 mps 771 mmHg 45%
    01:00 +12°C° 0 mm 5 mps 771 mmHg 45%
    02:00 +12°C° 0 mm 5 mps 770 mmHg 45%
    03:00 +11°C° 0 mm 4 mps 770 mmHg 45%
    04:00 +11°C° 0 mm 4 mps 770 mmHg 45%
    05:00 +11°C° 0 mm 4 mps 770 mmHg 46%
    06:00 +10°C° 0 mm 4 mps 771 mmHg 46%
    07:00 +10°C° 0 mm 4 mps 771 mmHg 47%
    08:00 +12°C° 0 mm 4 mps 771 mmHg 43%
    09:00 +13°C° 0 mm 4 mps 771 mmHg 39%
    10:00 +15°C° 0 mm 5 mps 771 mmHg 35%
    11:00 +16°C° 0 mm 5 mps 771 mmHg 31%
    12:00 +17°C° 0 mm 5 mps 770 mmHg 27%
    13:00 +19°C° 0 mm 5 mps 770 mmHg 22%
    14:00 +17°C° 0 mm 5 mps 770 mmHg 20%
    15:00 +17°C° 0 mm 5 mps 770 mmHg 19%
    16:00 +17°C° 0 mm 6 mps 769 mmHg 17%
    17:00 +16°C° 0 mm 5 mps 769 mmHg 17%
    18:00 +14°C° 0 mm 5 mps 769 mmHg 18%
    19:00 +13°C° 0 mm 5 mps 769 mmHg 19%
    20:00 +12°C° 0 mm 4 mps 769 mmHg 21%
    21:00 +12°C° 0 mm 4 mps 769 mmHg 22%
    22:00 +11°C° 0 mm 4 mps 769 mmHg 24%
    23:00 +10°C° 0 mm 4 mps 769 mmHg 26%
    Show more